Find Starlink 36216

NORAD ID: 67217 Int'l Des: 2025-304 Owner: SPXS Country: US Constellation: starlink operational
LEOCIRCULAR

当前视图

正在加载3D地球...

关于 Starlink 36216

正在加载描述...

即将过境

Passes for default location (London). Set your location on the main map for personalized predictions.

高度历史

Loading altitude history...

两行轨道根数

1 67217U 25304AB 26146.59658777 .00000524 00000-0 51684-4 0 9999
2 67217 70.0019 338.0493 0002517 266.1245 93.9627 14.98342323 25544
Epoch: May 26, 2026 • Age: 7 hours

当前状态

高度 573.9 km
速度 7.57 km/s
星下点 6.72°N, 52.05°W
发射日期 Dec 17, 2025
运行时间 0.4 years
类型 internet

技术详情

分类 Payload
质量 575.00 kg
干质量 530.00 kg
总质量 575.00 kg
长度 0.30 m
直径 4.10 m
跨度 29.00 m
形状 Box + pan
制造商 SPXS
平台类型 Starlink V2MO
阶段状态 In Orbit
所有者/国家 SPXS/US

Most Searched